Regional Weather Roundup
Issued by NWS Sioux Falls, SD

Home | Current Version | Previous Version | Text Only | Print | Product List | Glossary On
Versions: 1 2 3 4 5 6 7 8 9 10 11 12 13 14 15 16 17 18 19 20 21 22 23 24 25 26 27 28 29 30 31 32 33 34 35 36 37 38 39 40 41 42 43 44 45 46 47 48 49 50
000
ASUS43 KFSD 222110
RWRFSD

WEATHER ROUNDUP FOR SE SOUTH DAKOTA/SW MINNESOTA/NW IOWA
NATIONAL WEATHER SERVICE SIOUX FALLS SD
400 PM CDT WED OCT 22 2014

NOTE: "FAIR" INDICATES FEW OR NO CLOUDS BELOW 12,000 FEET WITH NO
SIGNIFICANT WEATHER AND OR OBSTRUCTIONS TO VISIBILITY.


SDZ038>040-050-052>070-222200-
SOUTHEAST SOUTH DAKOTA

CITY           SKY/WX    TMP DP  RH WIND       PRES   REMARKS
CHAMBERLAIN    CLOUDY    58  52  79 W5        29.97S
HURON          CLOUDY    57  54  89 W9        29.94R
MADISON        LGT RAIN  57  57 100 W8        29.95R
MITCHELL         N/A     57  55  93 W9        29.95R
SIOUX FALLS    CLOUDY    69  53  56 SW7       29.93R
WINNER         FAIR      65  46  50 NW12      29.98S
YANKTON        CLOUDY    57  54  88 N3        29.95R
$$

MNZ071-072-080-081-089-090-097-098-222200-
SOUTHWEST MINNESOTA

CITY           SKY/WX    TMP DP  RH WIND       PRES   REMARKS
FAIRMONT       PTSUNNY   63  43  48 S25       30.03S
JACKSON        CLOUDY    66  43  42 SE18G24   30.00F
LUVERNE        PTSUNNY   73  50  43 S26       29.93S
MARSHALL       CLOUDY    70  48  46 S14       29.91F
MONTEVIDEO     CLOUDY    68  46  45 S12G17    29.92F
PIPESTONE      PTSUNNY   72  50  46 SW20      29.92F
REDWOOD FALLS  CLOUDY    67  45  45 SE21      29.95F
TRACY          CLOUDY    72  48  43 S17G25    29.94S
WINDOM         CLOUDY    66  46  48 SE16G25   29.97F
WORTHINGTON    PTSUNNY   72  48  43 S16G29    29.95F
$$

IAZ001>003-012>014-020>022-031-032-NEZ013-014-SDZ071-222200-
NORTHWEST IOWA

CITY           SKY/WX    TMP DP  RH WIND       PRES   REMARKS
CHEROKEE       PTSUNNY   72  51  48 S18       29.99S
DENISON        PTSUNNY   72  52  49 S14G21    30.00F
ESTHERVILLE    PTSUNNY   65  46  50 S28G35    30.02F
LE MARS        PTSUNNY   73  52  46 S18G29    29.94F
ORANGE CITY    PTSUNNY   75  48  38 S17G26    29.94F
SHELDON        PTSUNNY   73  52  46 S20G29    29.94F
SIOUX CITY     CLOUDY    74  53  48 S15G21    29.95F
SPENCER        MOSUNNY   70  48  45 S22G29    30.00F
STORM LAKE     MOSUNNY   70  50  49 S22G28    30.02F
$$

ABBREVIATIONS USED IN REMARKS
   TC - TEMPERATURE IN CELSIUS
  WCI - WIND CHILL INDEX
   HX - HEAT INDEX
  VSB - VISIBILITY




USA.gov is the U.S. government's official web portal to all federal, state and local government web resources and services.